www.pogodaiklimat.ru

Погода и климат >> Архив погоды >> Россия >> Магаданская область >> Талая


ПОГОДА в Талой

  • Прогноз погоды в Талой
  • Монитор погоды в Талой

АРХИВ ПОГОДЫ в Талой

Время (UTC), дата Ветер
(напр.,м/с)
 
Видим.   Явления Облачность Т
(С)
Тd
(С)
f
(%)
Тe
(С)
Тes
(С)
Комфортность P
(гПа)
Po
(гПа)
Тmin
(С)
Tmax
(С)
R
(мм)
R24
(мм)
S
(см)
18 10.02 штиль 0 50 км ясно -39.1 -43.6 62 -39 -39 опасность
обморожения
1026.6 926.8
21 10.02 штиль 0 50 км ледяные иглы {снег} ясно -40.9 -45.5 61 -41 -41 опасность
обморожения
1027.1 926.4 -40.9 0.0 79
00 11.02 штиль 0 50 км ледяные иглы {снег} 1/0
[Ci fib]
-38.0 -42.1 65 -38 -37 опасность
обморожения
1025.4 926.0 -41.7
03 11.02 штиль 0 50 км {снег} 3/0
[Ac trans Ci fib]
-28.6 -32.5 69 -29 -27 1019.9 924.7
06 11.02 В 1 20 км слаб. снег 10/0
[Ac trans Cs]
-32.2 -36.0 69 -37 -37 опасность
обморожения
1020.1 923.5
09 11.02 штиль 0 10 км слаб. снег 10/0
[Ac trans Cs]
-34.5 -38.3 68 -35 -35 опасность
обморожения
1020.4 922.9 -28.1 0.2
12 11.02 штиль 0 10 км слаб. снег 10/0
[Cs]
-37.1 -41.2 65 -37 -37 опасность
обморожения
1020.8 922.3
15 11.02 штиль 0 10 км слаб. снег 10/0
[Cs]
-39.1 -43.7 61 -39 -39 опасность
обморожения
1020.2 920.9
18 11.02 штиль 0 10 км слаб. снег 10/0
[Cs]
-39.1 -43.3 64 -39 -39 опасность
обморожения
1020.3 921.0
21 11.02 штиль 0 10 км слаб. снег 10/0
[Cs]
-37.3 -41.5 65 -37 -37 опасность
обморожения
1019.5 921.0 -40.9 0.3 79
00 12.02 штиль 0 20 км слаб. снег 10/0
[Cs]
-35.3 -39.3 67 -35 -34 опасность
обморожения
1018.5 920.9
03 12.02 штиль 0 20 км слаб. снег 10/0
[Cs]
-27.7 -32.0 67 -28 -26 1015.1 920.6
06 12.02 штиль 0 20 км слаб. снег 10/0
[Cs]
-31.5 -35.4 68 -32 -32 опасность
обморожения
1017.8 921.7
09 12.02 штиль 0 10 км слаб. снег 10/0
[Cs]
-34.9 -38.7 68 -35 -35 опасность
обморожения
1020.1 922.5 -26.0 0.4
12 12.02 штиль 0 10 км слаб. снег 10/0
[Cs]
-38.2 -42.4 64 -38 -38 опасность
обморожения
1022.2 923.1
15 12.02 В 1 10 км слаб. снег 10/0
[Cs]
-39.0 -43.3 64 -44 -44 опасность
обморожения
1023.6 924.0
18 12.02 штиль 0 10 км слаб. снег 10/0
[Cs]
-42.2 -47.2 58 -42 -42 опасность
обморожения
1025.5 924.4
21 12.02 штиль 0 50 км ледяные иглы {снег} 6/0
[Ci fib]
-41.0 -45.5 62 -41 -41 опасность
обморожения
1026.0 925.4 -42.8 0.2 79
00 13.02 штиль 0 50 км ледяные иглы {снег} 10/0
[Cs]
-38.4 -42.7 64 -38 -37 опасность
обморожения
1026.3 926.7 -43.8
03 13.02 штиль 0 50 км {снег} ясно -31.1 -35.5 65 -31 -29 опасность
обморожения
1023.1 926.6
06 13.02 штиль 0 50 км {снег} ясно -33.9 -38.2 65 -34 -34 опасность
обморожения
1025.0 927.3
09 13.02 штиль 0 50 км ледяные иглы {снег} ясно -39.0 -43.6 62 -39 -39 опасность
обморожения
1028.7 928.6 -29.3
12 13.02 штиль 0 50 км ледяные иглы {снег} ясно -41.4 -46.1 60 -41 -41 опасность
обморожения
1030.3 929.1
15 13.02 штиль 0 50 км ледяные иглы {снег} ясно -44.3 -49.2 58 -44 -44 опасность
обморожения
1030.6 928.2
18 13.02 штиль 0 50 км ледяные иглы {снег} ясно -44.8 -50.1 55 -45 -45 опасность
обморожения
1029.7 927.1
21 13.02 штиль 0 50 км ледяные иглы {снег} ясно -45.1 -50.3 56 -45 -45 опасность
обморожения
1028.4 925.8 -45.9 79
00 14.02 штиль 0 50 км ледяные иглы {снег} ясно -41.6 -46.2 61 -42 -40 опасность
обморожения
1025.0 924.2 -46.4
03 14.02 штиль 0 50 км ледяные иглы {снег} ясно -32.0 -36.3 65 -32 -30 опасность
обморожения
1017.8 921.5
06 14.02 штиль 0 50 км ледяные иглы {снег} 4/0
[Ci fib]
-32.8 -36.9 67 -33 -33 опасность
обморожения
1015.8 919.4
09 14.02 штиль 0 50 км ледяные иглы {снег} ясно -38.6 -43.0 63 -39 -39 опасность
обморожения
1017.3 918.5 -29.4
12 14.02 штиль 0 50 км ледяные иглы {снег} ясно -40.4 -45.0 61 -40 -40 опасность
обморожения
1016.5 917.0
15 14.02 штиль 0 50 км ледяные иглы {снег} 5/0
[Ci fib]
-41.2 -46.0 60 -41 -41 опасность
обморожения
1014.8 915.3
18 14.02 штиль 0 50 км ледяные иглы {снег} 9/0
[Ci fib]
-39.9 -44.5 61 -40 -40 опасность
обморожения
1013.6 914.6
21 14.02 штиль 0 50 км ледяные иглы {снег} 9/0
[Ci fib]
-40.0 -44.6 61 -40 -40 опасность
обморожения
1012.7 913.8 -42.3 79
00 15.02 штиль 0 50 км ледяные иглы {снег} 9/0
[Ci fib]
-36.7 -40.9 65 -37 -35 опасность
обморожения
1011.0 913.6
03 15.02 штиль 0 50 км ледяные иглы {снег} 5/0
[Ci fib]
-28.5 -32.9 66 -29 -27 1006.3 912.4
06 15.02 В 1 50 км ледяные иглы {снег} 3/0
[Ci fib]
-31.2 -35.2 68 -35 -35 опасность
обморожения
1006.4 911.5
09 15.02 штиль 0 50 км ледяные иглы {снег} 3/0
[Ci fib]
-36.5 -40.4 67 -37 -37 опасность
обморожения
1008.5 911.4 -28.0
12 15.02 штиль 0 50 км ледяные иглы {снег} ясно -38.5 -42.7 64 -39 -39 опасность
обморожения
1008.9 910.9
15 15.02 штиль 0 50 км ледяные иглы {снег} ясно -41.0 -45.7 60 -41 -41 опасность
обморожения
1008.8 909.8
18 15.02 штиль 0 50 км ледяные иглы {снег} 3/0
[Ci fib]
-40.5 -45.0 62 -41 -41 опасность
обморожения
1007.8 909.2
21 15.02 штиль 0 50 км ледяные иглы {снег} 6/0
[Ci fib]
-40.6 -45.1 62 -41 -41 опасность
обморожения
1007.0 908.4 -42.5 79
00 16.02 штиль 0 50 км ледяные иглы {снег} 6/0
[Ci fib]
-37.7 -42.0 64 -38 -36 опасность
обморожения
1005.1 907.8 -42.9
03 16.02 штиль 0 20 км слаб. снег 10/3 1000 м
[Sc Ac trans Cs]
-28.3 -32.4 68 -28 -28 999.4 906.2
06 16.02 штиль 0 20 км слаб. снег 10/0
[As op]
-27.9 -31.8 69 -28 -28 998.9 905.9
09 16.02 штиль 0 10 км слаб. снег 10/0
[As trans]
-29.8 -33.4 71 -30 -30 999.9 906.1 -26.9 0.2
12 16.02 штиль 0 10 км слаб. снег 10/0
[As op]
-30.5 -34.0 71 -31 -31 опасность
обморожения
1000.0 906.0
15 16.02 штиль 0 10 км слаб. снег 10/0
[As op]
-29.9 -33.3 72 -30 -30 999.7 905.9
18 16.02 штиль 0 10 км слаб. снег 10/0
[As op]
-29.9 -33.3 72 -30 -30 1000.7 906.8
21 16.02 штиль 0 10 км слаб. снег 10/0
[As op]
-29.2 -32.5 73 -29 -29 1001.7 908.0 -30.5 0.3 79
00 17.02 штиль 0 20 км слаб. снег 10/0
[As op]
-27.5 -31.2 71 -28 -27 1002.3 909.1
03 17.02 С 1 20 км слаб. снег 10/0
[As op]
-25.4 -29.6 68 -29 -29 1001.9 909.5
06 17.02 штиль 0 20 км слаб. снег 10/0
[As op]
-25.6 -29.4 70 -26 -26 1003.1 910.6
09 17.02 штиль 0 10 км слаб. снег 10/0
[As op]
-26.5 -29.9 73 -27 -27 1005.2 912.1 -25.0 0.5
12 17.02 штиль 0 10 км слаб. снег 10/0
[As op]
-28.5 -31.8 73 -29 -29 1006.9 912.9
15 17.02 штиль 0 10 км слаб. снег 10/0
[As op]
-30.1 -33.5 72 -30 -30 1008.1 913.5

 

Местоположение метеостанции Талая (Магаданская область, Россия): широта 61.13 долгота 152.30 высота над уровнем моря 708 м.

В архиве по умолчанию представлена погода в Талой за последнюю неделю. Архивные данные за месяц целиком и за предыдущие месяцы, начиная с января 2011 года, Вы можете получить, выбрав интересующий диапазон дат из раскрывающегося списка и нажав кнопку "Ввод!".


*Определитесь, кто Вы:
робот инопланетянин человек

Внимание! Время в таблицах - всемирное. Для получения местного времени необходимо прибавить поправку, которая равна 11 ч.

Смотрите также архив погоды в соседних городах и на ближайших метеорологических станциях:

Погода в Мадауне (Магаданская область, Россия) (105 км)
Погода в Палатке (Магаданская область, Россия) (138 км)
Погода в Усть-Бохапче (Магаданская область, Россия) (140 км)
Погода в Усть-Омчуге (Магаданская область, Россия) (145 км)
Погода в Среднекане (Магаданская область, Россия) (147 км)
Погода на Озере Джека Лондона (Магаданская область, Россия) (182 км)
Погода в Оле (Магаданская область, Россия) (185 км)
Погода на Шелихова (Магаданская область, Россия) (195 км)
Погода в Брохово (Магаданская область, Россия) (195 км)
Погода в Магадане (Магаданская область, Россия) (197 км)

Пояснения к столбцам:

Ветер - указаны скорость ветра в м/с - средняя за 10 мин, порывы в срок и между сроками (в фигурных скобках) и направление, откуда дует ветер: С - северный, СВ - северо-восточный, В - восточный, ЮВ - юго-восточный, Ю - южный, ЮЗ - юго-западный, З - западный, СЗ - северо-западный.
Видимость - горизонтальная дальность видимости в метрах или километрах. При видимости от 1 до 10 км при отсутствии осадков обычно наблюдается дымка, при ухудшении видимости до 1 км и менее - туман. В сухую погоду видимость может ухудшаться дымом, пылью или мглою.
Явления - указаны атмосферные явления, наблюдавшиеся в срок или в последний час перед сроком; фигурными скобками обозначены явления, наблюдавшиеся между сроками (за 1-3 часа до срока); квадратными скобками обозначены град или гололедные отложения с указанием их диаметра в мм.
Облачность - указаны через наклонную черту общая и нижняя облачность в баллах и высота нижней границы облаков в метрах; квадратными скобками обозначены формы облаков: Ci - перистые, Cs - перисто-слоистые, Cc - перисто-кучевые, Ac - высококучевые, As - высокослоистые, Sc - слоисто-кучевые, Ns - слоисто-дождевые, Cu - кучевые, Cb - кучево-дождевые. Подробнее классификацию облаков см. в Атласе облаков (PDF).
T - Температура воздуха - температура, измеренная на высоте 2 м над землей.
Td - Температура точки росы - температура, при понижении до которой содержащийся в воздухе водяной пар достигнет насыщения.
f - Относительная влажность воздуха - влажноcть воздуха, измеренная на высоте 2 м над землей.
Te - Эффективная температура - температура, которую ощущает одетый по сезону человек в тени. Характеристика душности погоды. При расчете учитывается влияние влажности воздуха и скорости ветра на теплоощущения человека.
Tes - Эффективная температура на солнце - температура, которую ощущает человек, с поправкой на солнечный нагрев. Характеристика знойности погоды. Зависит от высоты солнца над горизонтом, облачности и скорости ветра. Ночью, в пасмурную погоду, а также при ветре 12 м/с и более поправка равна нулю.
P - Атмосферное давление - приведенное к уровню моря атмосферное давление.
Po - Атмосферное давление - измеренное на уровне метеостанции атмосферное давление.
Tmin - Минимальная температура - минимум температуры воздуха на высоте 2 м над землей.
Tmax - Максимальная температура - максимум температуры воздуха на высоте 2 м над землей.
R - Количество осадков - Количество выпавших осадков за период времени, мм. При наведении курсора мыши на число - период времени, за который выпало указанное количество осадков.
R24 - Количество осадков - Количество выпавших осадков за 24 часа, мм.
S - Снежный покров - Высота снежного покрова, см. При наведении курсора мыши на число - состояние снежного покрова и степень покрытия местности в баллах.